Date String (YYYY-MM-DD hh:mm:ss) UTC,Instrument flags,Ambient pressure (hPa),Sample flow (lpm),Bypass flow (lpm),Sample temperature (°C),Ambient temperature (°C),ASC tube jacket temperature (°C),LED temperature (°C),Box temperature (°C),Sample RH (%),Span deviation,Mass concentration (μg/m³),Mass concentration (μg/m³),Mass concentration (μg/m³)
DateTimeUTC,F1_M11,P_M11,Q1_M11,Q2_M11,T1_M11,T2_M11,T3_M11,T4_M11,T5_M11,U1_M11,ZSPAN_M11,X0_M11,X2_M11,X1_M11
2023-04-09 11:00:00,,0833.5,5.00,0.00,24.0,22.3,00.0,32.4,25.5,15.4,0000.0,0008.68,0003.44,0001.98
2023-04-09 11:01:00,,0833.5,5.01,0.00,24.0,22.3,00.0,32.3,25.5,15.4,0000.0,0008.96,0003.48,0002.00
2023-04-09 11:02:00,,0833.5,5.01,0.00,24.0,22.3,00.0,32.3,25.5,15.4,0000.0,0009.53,0003.52,0002.01
2023-04-09 11:03:00,,0833.5,4.99,0.00,24.0,22.3,00.0,32.3,25.5,15.4,0000.0,0009.52,0003.52,0002.01
2023-04-09 11:04:00,,0833.6,5.00,0.00,24.0,22.3,00.0,32.3,25.5,15.4,0000.0,0009.30,0003.48,0002.01
2023-04-09 11:05:00,,0833.6,5.00,0.00,24.0,22.3,00.0,32.3,25.5,15.4,0000.0,0008.23,0003.45,0002.01
2023-04-09 11:06:00,,0833.6,4.99,0.00,24.0,22.3,00.0,32.3,25.5,15.4,0000.0,0008.03,0003.40,0002.01
2023-04-09 11:07:00,,0833.7,5.00,0.00,24.0,22.3,00.0,32.3,25.5,15.3,0000.0,0007.87,0003.35,0002.00
2023-04-09 11:08:00,,0833.7,5.01,0.00,24.0,22.3,00.0,32.3,25.5,15.3,0000.0,0008.49,0003.35,0002.01
2023-04-09 11:09:00,,0833.7,5.00,0.00,24.0,22.3,00.0,32.3,25.5,15.2,0000.0,0008.95,0003.39,0002.02
2023-04-09 11:10:00,,0833.7,4.98,0.00,24.0,22.2,00.0,32.3,25.5,15.1,0000.0,0009.49,0003.40,0002.01
2023-04-09 11:11:00,,0833.7,5.00,0.00,24.0,22.2,00.0,32.3,25.5,15.1,0000.0,0009.49,0003.36,0001.99
2023-04-09 11:12:00,,0833.7,4.99,0.00,24.0,22.2,00.0,32.3,25.5,15.1,0000.0,0009.27,0003.32,0001.97
2023-04-09 11:13:00,,0833.7,5.01,0.00,24.0,22.2,00.0,32.3,25.5,15.2,0000.0,0008.84,0003.30,0001.98
2023-04-09 11:14:00,,0833.7,5.00,0.00,24.0,22.2,00.0,32.3,25.5,15.2,0000.0,0009.34,0003.29,0001.98
2023-04-09 11:15:00,,0833.7,5.00,0.00,24.0,22.2,00.0,32.3,25.5,15.2,0000.0,0009.75,0003.30,0001.99
2023-04-09 11:16:00,,0833.6,4.99,0.00,24.0,22.2,00.0,32.3,25.5,15.3,0000.0,0009.85,0003.32,0001.98
2023-04-09 11:17:00,,0833.7,4.99,0.00,23.9,22.2,00.0,32.3,25.5,15.4,0000.0,0010.07,0003.36,0001.97
2023-04-09 11:18:00,,0833.7,5.02,0.00,23.9,22.2,00.0,32.3,25.4,15.3,0000.0,0010.16,0003.39,0001.97
2023-04-09 11:19:00,,0833.7,5.00,0.00,23.9,22.2,00.0,32.3,25.5,15.3,0000.0,0009.52,0003.38,0001.96
2023-04-09 11:20:00,,0833.7,4.99,0.00,23.9,22.2,00.0,32.3,25.4,15.3,0000.0,0009.54,0003.36,0001.96
2023-04-09 11:21:00,,0833.7,4.99,0.00,23.9,22.1,00.0,32.2,25.4,15.3,0000.0,0009.23,0003.39,0001.96
2023-04-09 11:22:00,,0833.7,4.99,0.00,23.9,22.1,00.0,32.2,25.4,15.4,0000.0,0009.50,0003.39,0001.98
2023-04-09 11:23:00,,0833.8,4.99,0.00,23.9,22.1,00.0,32.2,25.4,15.4,0000.0,0010.54,0003.39,0001.96
2023-04-09 11:24:00,,0833.8,5.01,0.00,23.9,22.1,00.0,32.2,25.4,15.4,0000.0,0010.59,0003.36,0001.95
2023-04-09 11:25:00,,0833.8,5.00,0.00,23.9,22.1,00.0,32.2,25.4,15.4,0000.0,0010.11,0003.36,0001.94
2023-04-09 11:26:00,,0833.8,4.99,0.00,23.9,22.1,00.0,32.2,25.4,15.4,0000.0,0010.28,0003.38,0001.94
2023-04-09 11:27:00,,0833.8,4.98,0.00,23.9,22.1,00.0,32.2,25.4,15.4,0000.0,0010.39,0003.39,0001.94
2023-04-09 11:28:00,,0833.8,5.01,0.00,23.8,22.1,00.0,32.2,25.4,15.4,0000.0,0010.56,0003.36,0001.94
2023-04-09 11:29:00,,0833.8,5.01,0.00,23.8,22.1,00.0,32.2,25.3,15.5,0000.0,0011.19,0003.35,0001.94
2023-04-09 11:30:00,,0833.8,5.01,0.00,23.8,22.1,00.0,32.2,25.3,15.5,0000.0,0011.18,0003.34,0001.93
2023-04-09 11:31:00,,0833.8,5.00,0.00,23.8,22.1,00.0,32.2,25.3,15.5,0000.0,0011.40,0003.35,0001.92
2023-04-09 11:32:00,,0833.8,5.00,0.00,23.8,22.0,00.0,32.2,25.3,15.5,0000.0,0011.06,0003.30,0001.92
2023-04-09 11:33:00,,0833.8,5.00,0.00,23.8,22.1,00.0,32.2,25.3,15.4,0000.0,0010.59,0003.28,0001.91
2023-04-09 11:34:00,,0833.8,5.00,0.00,23.8,22.1,00.0,32.1,25.3,15.5,0000.0,0009.74,0003.29,0001.92
2023-04-09 11:35:00,,0833.8,5.01,0.00,23.8,22.1,00.0,32.1,25.3,15.5,0000.0,0009.51,0003.29,0001.93
2023-04-09 11:36:00,,0833.8,5.01,0.00,23.8,22.1,00.0,32.1,25.4,15.5,0000.0,0009.50,0003.31,0001.95
2023-04-09 11:37:00,,0833.8,5.00,0.00,23.8,22.1,00.0,32.1,25.4,15.5,0000.0,0009.05,0003.33,0001.97
2023-04-09 11:38:00,,0833.8,5.00,0.00,23.8,22.1,00.0,32.1,25.3,15.5,0000.0,0008.82,0003.34,0001.96
2023-04-09 11:39:00,,0833.8,4.99,0.00,23.8,22.1,00.0,32.1,25.3,15.5,0000.0,0008.82,0003.37,0001.97
2023-04-09 11:40:00,,0833.8,5.00,0.00,23.8,22.1,00.0,32.1,25.3,15.4,0000.0,0009.39,0003.44,0001.98
2023-04-09 11:41:00,,0833.8,5.01,0.00,23.8,22.1,00.0,32.1,25.3,15.4,0000.0,0009.66,0003.45,0001.99
2023-04-09 11:42:00,,0833.8,4.99,0.00,23.8,22.1,00.0,32.1,25.3,15.4,0000.0,0009.49,0003.43,0001.98
2023-04-09 11:43:00,,0833.8,4.99,0.00,23.8,22.1,00.0,32.1,25.3,15.5,0000.0,0009.50,0003.40,0001.99
2023-04-09 11:44:00,,0833.8,5.01,0.00,23.8,22.1,00.0,32.1,25.3,15.5,0000.0,0009.75,0003.44,0002.01
2023-04-09 11:45:00,,0833.8,5.02,0.00,23.8,22.1,00.0,32.1,25.3,15.5,0000.0,0010.07,0003.46,0002.02
2023-04-09 11:46:00,,0833.8,5.00,0.00,23.8,22.1,00.0,32.1,25.3,15.5,0000.0,0010.08,0003.48,0002.00
2023-04-09 11:47:00,,0833.8,4.99,0.00,23.8,22.1,00.0,32.1,25.4,15.4,0000.0,0010.16,0003.48,0002.00
2023-04-09 11:48:00,,0833.8,5.00,0.00,23.8,22.1,00.0,32.1,25.3,15.4,0000.0,0010.27,0003.46,0002.00
2023-04-09 11:49:00,,0833.9,5.01,0.00,23.8,22.1,00.0,32.1,25.3,15.4,0000.0,0010.49,0003.43,0002.00
2023-04-09 11:50:00,,0833.8,4.99,0.00,23.8,22.1,00.0,32.1,25.3,15.4,0000.0,0010.37,0003.39,0002.01
2023-04-09 11:51:00,,0833.8,4.99,0.00,23.8,22.1,00.0,32.1,25.3,15.3,0000.0,0009.32,0003.32,0002.01
2023-04-09 11:52:00,,0833.8,5.00,0.00,23.8,22.0,00.0,32.1,25.3,15.2,0000.0,0009.63,0003.30,0002.01
2023-04-09 11:53:00,,0833.8,5.01,0.00,23.8,22.0,00.0,32.1,25.3,15.2,0000.0,0009.32,0003.27,0002.02
2023-04-09 11:54:00,,0833.9,5.00,0.00,23.8,22.0,00.0,32.1,25.2,15.2,0000.0,0009.32,0003.32,0002.04
2023-04-09 11:55:00,,0833.9,4.99,0.00,23.7,22.0,00.0,32.1,25.2,15.2,0000.0,0009.36,0003.31,0002.02
2023-04-09 11:56:00,,0833.9,5.00,0.00,23.7,22.0,00.0,32.1,25.2,15.2,0000.0,0009.06,0003.30,0002.00
2023-04-09 11:57:00,,0833.9,5.00,0.00,23.7,21.9,00.0,32.1,25.2,15.3,0000.0,0009.05,0003.30,0002.01
2023-04-09 11:58:00,,0834.0,5.00,0.00,23.7,21.9,00.0,32.0,25.1,15.5,0000.0,0009.13,0003.29,0002.00
2023-04-09 11:59:00,,0834.0,5.01,0.00,23.7,21.9,00.0,32.0,25.1,15.6,0000.0,0009.08,0003.26,0001.99
